Regional Weather Roundup
Issued by NWS

Home | Current Version | Previous Version | Graphics & Text | Print | Product List | Glossary On
Versions: 1 2 3 4 5 6 7 8 9 10 11 12 13 14 15 16 17 18 19 20 21 22 23 24 25 26 27 28 29 30 31 32 33 34 35 36 37 38 39 40 41 42 43 44 45 46 47 48 49 50
000
ASUS45 KBOU 301707
RWRCO

WEATHER ROUNDUP FOR COLORADO
NATIONAL WEATHER SERVICE DENVER/BOULDER CO
1100 AM MDT SAT MAY 30 2015

NOTE: "FAIR" INDICATES FEW OR NO CLOUDS BELOW 12000 FEET WITH NO
SIGNIFICANT WEATHER AND/OR OBSTRUCTIONS TO VISIBILITY.

COZ001>005-013-030-031-301800-
...NORTHWEST COLORADO...

CITY           SKY/WX    TMP DP  RH WIND       PRES   REMARKS
CRAIG          SUNNY     65  41  41 NE6       30.29F
HAYDEN         SUNNY     61  36  39 NE8       30.30F
MEEKER         SUNNY     65  40  39 N3        30.29F
MOUNT WERNER   NOT AVBL
STEAMBOAT SPGS SUNNY     58  37  46 CALM      30.32F
WALDEN         SUNNY     54  34  47 SW3       30.36S
$$

COZ006>008-011-301800-
...WEST CENTRAL VALLEYS...

CITY           SKY/WX    TMP DP  RH WIND       PRES   REMARKS
GRAND JUNCTION SUNNY     69  40  34 SE12      30.22F
MONTROSE       SUNNY     68  39  34 NE5       30.30S
EAGLE          MOSUNNY   66  45  45 CALM      30.35F
RIFLE          SUNNY     65  42  43 CALM      30.27F
DELTA          SUNNY     70  36  28 E3        30.27S
NUCLA          SUNNY     68  36  30 W3        30.32S
$$

COZ017>023-064>068-301800-
...SOUTHWEST COLORADO...

CITY           SKY/WX    TMP DP  RH WIND       PRES   REMARKS
DURANGO        SUNNY     65  35  33 CALM      30.32F
CORTEZ         SUNNY     73  32  22 S5        30.27S
PAGOSA SPRINGS SUNNY     61  29  29 W3        30.38S
TELLURIDE      SUNNY     59  27  29 W5        30.45S
WOLF CREEK PAS NOT AVBL
$$

COZ009-010-012-014-032>034-037-058>063-301800-
...CENTRAL COLORADO...

CITY           SKY/WX    TMP DP  RH WIND       PRES   REMARKS
ASPEN          SUNNY     61  31  32 N5        30.36S
BUENA VISTA    SUNNY     58  33  37 CALM      30.37F
COPPER MTN     SUNNY     45  23  42 W9G18     30.56R
BERTHOUD PASS  FAIR      34  28  80 NW14G22   30.58R WCI  24
COTTONWOOD PAS SUNNY     57  34  41 SE8       30.45S
GUNNISON       SUNNY     55  32  41 SW3       30.41S
KREMMLING      SUNNY     55  36  47 E3        30.38S
LEADVILLE      SUNNY     50  25  37 VRB3      30.44S
MONARCH PASS   SUNNY     37  28  70 W9        30.66S
SALIDA         SUNNY     62  39  42 NE3       30.41F
SUNLIGHT       SUNNY     48  27  43 CALM      30.55R
WILKERSON PASS MOSUNNY   41  32  70 CALM      30.55R
$$

COZ069>075-301800-
...SAN LUIS VALLEY/SANGRE DE CRISTO MOUNTAINS...

CITY           SKY/WX    TMP DP  RH WIND       PRES   REMARKS
ALAMOSA        SUNNY     59  36  42 MISG      30.37F
LA VETA PASS   SUNNY    N/A N/A N/A MISG      30.49R
SAGUACHE       SUNNY     57  37  47 SE9       30.39F
$$

COZ035-036-038>040-301800-
...NORTHERN COLORADO FRONT RANGE...

CITY           SKY/WX    TMP DP  RH WIND       PRES   REMARKS
DENVER INTL AP MOSUNNY   62  45  53 SE6       30.28F
DMNS CITY PARK   N/A     64  44  49 N1        30.27S
AURORA         MOSUNNY   61  43  51 SE2       30.28F
FRONT RANGE AP MOSUNNY   63  48  59 S9        30.29F
ERIE MUNI ARPT SUNNY     62  47  58 CALM      30.28S
BOULDER MUN AP SUNNY     61  45  55 N3        30.28S
CENTENNIAL     MOSUNNY   61  41  47 CALM      30.29F
BROOMFIELD     MOSUNNY   59  46  63 E5        30.30S
FORT COLLINS   PTSUNNY   57  48  72 S7        30.29S
LONGMONT       SUNNY     65  48  54 CALM      30.29F
$$

COZ041-046-047-076>085-087-088-301800-
...PIKES PEAK/PALMER DIVIDE AND SOUTHERN FOOTHILLS...

CITY           SKY/WX    TMP DP  RH WIND       PRES   REMARKS
COLO. SPRINGS  PTSUNNY   56  46  69 VRB6      30.33S
A. F. ACADEMY  MOSUNNY   54  46  73 S7        30.33S
ELLICOTT       CLOUDY   N/A N/A N/A SW6       30.33S
FALCON         PTSUNNY   55  45  68 S7        30.36S
FORT CARSON    PTSUNNY   57  48  71 S6        30.31F
LIMON          SUNNY     58  47  66 SE12      30.30F
MONUMENT HILL  SUNNY     59  41  51 CALM      30.33F
TRINIDAD       SUNNY     60  47  61 E6        30.31F
$$

COZ042>045-048>051-090-091-301800-
...NORTHEAST COLORADO...

CITY           SKY/WX    TMP DP  RH WIND       PRES   REMARKS
GREELEY ARPT   MOSUNNY   63  48  59 S8        30.29S
AKRON          CLOUDY    53  46  77 E9        30.31S
BURLINGTON     CLOUDY    50  45  83 N6        30.32S
WRAY           MOSUNNY   56  44  62 CALM      30.32S
STERLING       CLOUDY    55  46  71 SE3       30.29S
HOLYOKE        SUNNY     59  43  55 CALM      30.31S
FORT MORGAN    CLOUDY    57  45  65 E8        30.30F
$$

COZ086-089-092>099-301800-
...SOUTHEAST COLORADO...

CITY           SKY/WX    TMP DP  RH WIND       PRES   REMARKS
PUEBLO         PTSUNNY   59  51  75 SE9       30.28F
LA JUNTA       PTSUNNY   60  48  64 S6        30.30F
LAMAR          PTSUNNY   59  46  62 VRB3      30.29F
SPRINGFIELD      N/A     59  47  64 N8        30.31F
$$



USA.gov is the U.S. government's official web portal to all federal, state and local government web resources and services.